Time,TemperatureF,DewpointF,PressureIn,WindDirection,WindDirectionDegrees,WindSpeedMPH,WindSpeedGustMPH,Humidity,HourlyPrecipIn,Conditions,Clouds,dailyrainin,SoftwareType,DateUTC
2013-08-09 00:04:00,68.5,43.2,29.75,WSW,238,10.0,10.0,40,0.00,OVC,,0.00,WeatherDisplay:10.37,2013-08-09 07:04:00,
2013-08-09 00:09:00,69.2,43.8,29.75,SSW,206,10.4,10.4,40,0.00,OVC,,0.00,WeatherDisplay:10.37,2013-08-09 07:09:00,
2013-08-09 00:14:00,68.9,43.6,29.75,SSW,202,11.5,11.5,40,0.00,OVC,,0.00,WeatherDisplay:10.37,2013-08-09 07:14:00,
2013-08-09 00:19:00,68.5,43.2,29.75,SW,234,8.1,8.1,40,0.00,OVC,,0.00,WeatherDisplay:10.37,2013-08-09 07:19:00,
2013-08-09 00:24:00,68.1,43.5,29.75,SW,221,6.9,6.9,41,0.00,OVC,,0.00,WeatherDisplay:10.37,2013-08-09 07:24:00,
2013-08-09 00:30:00,68.3,43.7,29.75,SSW,213,9.2,9.2,41,0.00,OVC,,0.00,WeatherDisplay:10.37,2013-08-09 07:30:00,
2013-08-09 00:35:00,68.0,43.4,29.75,SW,220,7.0,7.0,41,0.00,OVC,,0.00,WeatherDisplay:10.37,2013-08-09 07:35:00,
2013-08-09 00:40:00,67.5,43.6,29.75,SW,233,8.0,8.0,42,0.00,OVC,,0.00,WeatherDisplay:10.37,2013-08-09 07:40:00,
2013-08-09 00:45:00,67.7,43.8,29.74,SW,219,10.0,10.0,42,0.00,OVC,,0.00,WeatherDisplay:10.37,2013-08-09 07:45:00,
2013-08-09 00:50:00,68.1,44.1,29.74,SW,235,10.4,10.4,42,0.00,OVC,,0.00,WeatherDisplay:10.37,2013-08-09 07:50:00,
2013-08-09 00:55:00,67.8,43.8,29.74,SW,231,3.0,9.0,42,0.00,CLR,,0.00,WeatherDisplay:10.37,2013-08-09 07:55:00,
2013-08-09 01:00:00,66.9,43.0,29.74,WSW,246,2.0,4.0,42,0.00,CLR,,0.00,WeatherDisplay:10.37,2013-08-09 08:00:00,
2013-08-09 01:05:00,66.5,43.9,29.74,WSW,251,3.0,4.0,44,0.00,CLR,,0.00,WeatherDisplay:10.37,2013-08-09 08:05:00,
2013-08-09 01:10:00,66.8,44.2,29.74,WSW,241,2.0,5.0,44,0.00,CLR,,0.00,WeatherDisplay:10.37,2013-08-09 08:10:00,
2013-08-09 01:15:00,67.0,44.4,29.74,WSW,246,5.8,5.8,44,0.00,OVC,,0.00,WeatherDisplay:10.37,2013-08-09 08:15:00,
2013-08-09 01:21:00,66.8,43.6,29.74,SW,228,8.1,8.1,43,0.00,OVC,,0.00,WeatherDisplay:10.37,2013-08-09 08:21:00,
2013-08-09 01:26:00,66.5,43.3,29.74,West,269,3.5,3.5,43,0.00,OVC,,0.00,WeatherDisplay:10.37,2013-08-09 08:26:00,
2013-08-09 01:31:00,66.5,44.5,29.74,SW,232,9.0,9.0,45,0.00,OVC,,0.00,WeatherDisplay:10.37,2013-08-09 08:31:00,
2013-08-09 01:36:00,66.8,44.2,29.74,SW,234,4.0,4.0,44,0.00,OVC,,0.00,WeatherDisplay:10.37,2013-08-09 08:36:00,
2013-08-09 01:41:00,66.7,44.1,29.74,SW,230,3.5,3.5,44,0.00,OVC,,0.00,WeatherDisplay:10.37,2013-08-09 08:41:00,
2013-08-09 01:46:00,66.5,43.9,29.74,West,279,3.5,3.5,44,0.00,OVC,,0.00,WeatherDisplay:10.37,2013-08-09 08:46:00,
2013-08-09 01:51:00,66.0,44.0,29.75,West,263,4.0,4.0,45,0.00,OVC,,0.00,WeatherDisplay:10.37,2013-08-09 08:51:00,
2013-08-09 01:56:00,66.2,44.8,29.75,SSE,167,3.5,3.5,46,0.00,OVC,,0.00,WeatherDisplay:10.37,2013-08-09 08:56:00,
2013-08-09 02:01:00,66.0,44.6,29.74,ESE,113,3.5,0.0,46,0.00,OVC,,0.00,WeatherDisplay:10.37,2013-08-09 09:01:00,
2013-08-09 02:06:00,66.0,44.6,29.74,SSE,158,1.1,0.0,46,0.00,OVC,,0.00,WeatherDisplay:10.37,2013-08-09 09:06:00,
2013-08-09 02:11:00,65.7,43.2,29.74,NNW,329,3.5,3.5,44,0.00,OVC,,0.00,WeatherDisplay:10.37,2013-08-09 09:11:00,
2013-08-09 02:17:00,64.5,42.7,29.74,West,261,2.3,2.3,45,0.00,OVC,,0.00,WeatherDisplay:10.37,2013-08-09 09:17:00,
2013-08-09 02:22:00,64.0,42.8,29.74,West,261,3.5,3.5,46,0.00,OVC,,0.00,WeatherDisplay:10.37,2013-08-09 09:22:00,
2013-08-09 02:27:00,64.0,43.4,29.74,West,263,3.5,3.5,47,0.00,OVC,,0.00,WeatherDisplay:10.37,2013-08-09 09:27:00,
2013-08-09 02:32:00,64.1,43.4,29.74,West,263,2.3,2.3,47,0.00,OVC,,0.00,WeatherDisplay:10.37,2013-08-09 09:32:00,
2013-08-09 02:37:00,64.3,44.2,29.74,West,263,0.0,0.0,48,0.00,OVC,,0.00,WeatherDisplay:10.37,2013-08-09 09:37:00,
2013-08-09 02:42:00,64.3,43.6,29.74,South,175,3.5,3.5,47,0.00,OVC,,0.00,WeatherDisplay:10.37,2013-08-09 09:42:00,
2013-08-09 02:48:00,64.1,43.4,29.74,SSE,164,4.0,4.0,47,0.00,OVC,,0.00,WeatherDisplay:10.37,2013-08-09 09:48:00,
2013-08-09 02:53:00,64.5,44.4,29.74,South,181,5.0,5.0,48,0.00,OVC,,0.00,WeatherDisplay:10.37,2013-08-09 09:53:00,
2013-08-09 02:58:00,64.4,43.7,29.74,SSW,211,6.0,6.0,47,0.00,OVC,,0.00,WeatherDisplay:10.37,2013-08-09 09:58:00,
2013-08-09 03:03:00,63.6,42.4,29.74,SW,214,6.0,6.0,46,0.00,OVC,,0.00,WeatherDisplay:10.37,2013-08-09 10:03:00,
2013-08-09 03:08:00,63.3,44.3,29.74,SSW,202,8.1,8.1,50,0.00,OVC,,0.00,WeatherDisplay:10.37,2013-08-09 10:08:00,
2013-08-09 03:13:00,64.8,44.1,29.74,SSW,199,8.1,8.1,47,0.00,OVC,,0.00,WeatherDisplay:10.37,2013-08-09 10:13:00,
2013-08-09 03:18:00,64.1,43.4,29.74,SSW,200,8.1,8.1,47,0.00,OVC,,0.00,WeatherDisplay:10.37,2013-08-09 10:18:00,
2013-08-09 03:23:00,63.8,43.2,29.74,SSW,198,8.1,8.1,47,0.00,CLR,,0.00,WeatherDisplay:10.37,2013-08-09 10:23:00,
2013-08-09 03:28:00,61.5,39.9,29.74,SSW,209,7.0,7.0,45,0.00,OVC,,0.00,WeatherDisplay:10.37,2013-08-09 10:28:00,
2013-08-09 03:34:00,61.8,43.5,29.74,WSW,238,7.0,7.0,51,0.00,OVC,,0.00,WeatherDisplay:10.37,2013-08-09 10:34:00,
2013-08-09 03:39:00,63.5,42.9,29.74,West,259,5.8,5.8,47,0.00,OVC,,0.00,WeatherDisplay:10.37,2013-08-09 10:39:00,
2013-08-09 03:44:00,63.5,44.5,29.74,WSW,240,6.0,6.0,50,0.00,OVC,,0.00,WeatherDisplay:10.37,2013-08-09 10:44:00,
2013-08-09 03:49:00,64.5,44.9,29.74,SW,221,8.1,8.1,49,0.00,OVC,,0.00,WeatherDisplay:10.37,2013-08-09 10:49:00,
2013-08-09 03:54:00,64.4,44.3,29.74,SW,227,6.0,6.0,48,0.00,OVC,,0.00,WeatherDisplay:10.37,2013-08-09 10:54:00,
2013-08-09 03:59:00,64.7,44.5,29.74,SW,236,5.8,5.8,48,0.00,OVC,,0.00,WeatherDisplay:10.37,2013-08-09 10:59:00,
2013-08-09 04:04:00,64.7,44.5,29.74,SW,232,7.0,7.0,48,0.00,OVC,,0.00,WeatherDisplay:10.37,2013-08-09 11:04:00,
2013-08-09 04:09:00,64.8,44.6,29.74,SSW,207,8.1,8.1,48,0.00,OVC,,0.00,WeatherDisplay:10.37,2013-08-09 11:09:00,
2013-08-09 04:14:00,64.3,44.2,29.74,SW,215,10.4,10.4,48,0.00,OVC,,0.00,WeatherDisplay:10.37,2013-08-09 11:14:00,
2013-08-09 04:19:00,63.9,43.8,29.74,SSW,200,9.2,9.2,48,0.00,OVC,,0.00,WeatherDisplay:10.37,2013-08-09 11:19:00,
2013-08-09 04:25:00,63.4,43.4,29.74,SW,221,9.0,9.0,48,0.00,OVC,,0.00,WeatherDisplay:10.37,2013-08-09 11:25:00,
2013-08-09 04:30:00,63.1,43.1,29.73,WSW,239,6.9,6.9,48,0.00,OVC,,0.00,WeatherDisplay:10.37,2013-08-09 11:30:00,
2013-08-09 04:35:00,62.0,42.1,29.73,West,264,4.0,4.0,48,0.00,CLR,,0.00,WeatherDisplay:10.37,2013-08-09 11:35:00,
2013-08-09 04:40:00,61.4,42.1,29.73,WSW,240,4.6,4.6,49,0.00,OVC,,0.00,WeatherDisplay:10.37,2013-08-09 11:40:00,
2013-08-09 04:45:00,60.9,42.1,29.73,SW,219,5.0,5.0,50,0.00,OVC,,0.00,WeatherDisplay:10.37,2013-08-09 11:45:00,
2013-08-09 04:50:00,60.5,41.8,29.73,SW,219,3.0,6.0,50,0.00,CLR,,0.00,WeatherDisplay:10.37,2013-08-09 11:50:00,
2013-08-09 04:55:00,59.8,41.1,29.73,SSW,210,2.0,6.0,50,0.00,CLR,,0.00,WeatherDisplay:10.37,2013-08-09 11:55:00,
2013-08-09 05:00:00,59.8,41.6,29.74,SW,217,2.0,4.0,51,0.00,CLR,,0.00,WeatherDisplay:10.37,2013-08-09 12:00:00,
2013-08-09 05:05:00,59.7,41.5,29.74,South,184,3.5,3.5,51,0.00,OVC,,0.00,WeatherDisplay:10.37,2013-08-09 12:05:00,
2013-08-09 05:10:00,59.8,42.2,29.74,South,184,6.0,6.0,52,0.00,CLR,,0.00,WeatherDisplay:10.37,2013-08-09 12:10:00,
2013-08-09 05:15:00,61.2,43.4,29.74,South,185,6.0,7.0,52,0.00,CLR,,0.00,WeatherDisplay:10.37,2013-08-09 12:15:00,
2013-08-09 05:20:00,59.3,39.6,29.74,SW,219,5.0,6.0,48,0.00,CLR,,0.00,WeatherDisplay:10.37,2013-08-09 12:20:00,
2013-08-09 05:25:00,55.9,37.5,29.74,WSW,242,5.0,6.0,50,0.00,CLR,,0.00,WeatherDisplay:10.37,2013-08-09 12:25:00,
2013-08-09 05:30:00,53.6,36.4,29.74,SW,227,5.0,5.0,52,0.00,CLR,,0.00,WeatherDisplay:10.37,2013-08-09 12:30:00,
2013-08-09 05:35:00,53.3,37.0,29.74,SW,218,5.0,6.0,54,0.00,CLR,,0.00,WeatherDisplay:10.37,2013-08-09 12:35:00,
2013-08-09 05:40:00,51.8,35.7,29.74,SW,218,5.0,6.0,54,0.00,CLR,,0.00,WeatherDisplay:10.37,2013-08-09 12:40:00,
2013-08-09 05:45:00,51.4,36.2,29.74,SSW,210,6.0,6.0,56,0.00,OVC,,0.00,WeatherDisplay:10.37,2013-08-09 12:45:00,
2013-08-09 05:50:00,51.3,36.6,29.74,SSW,198,6.0,6.0,57,0.00,OVC,,0.00,WeatherDisplay:10.37,2013-08-09 12:50:00,
2013-08-09 05:56:00,51.1,36.4,29.74,SSW,198,4.0,4.0,57,0.00,OVC,,0.00,WeatherDisplay:10.37,2013-08-09 12:56:00,
2013-08-09 06:01:00,51.0,36.7,29.75,SSW,198,3.5,3.5,58,0.00,OVC,,0.00,WeatherDisplay:10.37,2013-08-09 13:01:00,
2013-08-09 06:06:00,51.4,37.1,29.75,SSW,198,3.5,3.5,58,0.00,OVC,,0.00,WeatherDisplay:10.37,2013-08-09 13:06:00,
2013-08-09 06:11:00,51.7,37.4,29.75,SSW,198,4.0,4.0,58,0.00,OVC,,0.00,WeatherDisplay:10.37,2013-08-09 13:11:00,
2013-08-09 06:16:00,52.6,38.7,29.75,SW,220,5.8,5.8,59,0.00,OVC,,0.00,WeatherDisplay:10.37,2013-08-09 13:16:00,
2013-08-09 06:21:00,53.0,38.2,29.75,SW,220,4.0,4.0,57,0.00,OVC,,0.00,WeatherDisplay:10.37,2013-08-09 13:21:00,
2013-08-09 06:26:00,52.7,37.4,29.76,SW,220,3.5,3.5,56,0.00,OVC,,0.00,WeatherDisplay:10.37,2013-08-09 13:26:00,
2013-08-09 06:32:00,52.5,38.1,29.76,SW,220,1.1,1.1,58,0.00,OVC,,0.00,WeatherDisplay:10.37,2013-08-09 13:32:00,
2013-08-09 06:37:00,52.4,37.2,29.76,SW,220,2.0,2.0,56,0.00,OVC,,0.00,WeatherDisplay:10.37,2013-08-09 13:37:00,
2013-08-09 06:42:00,52.8,38.4,29.76,SW,220,3.5,3.5,58,0.00,OVC,,0.00,WeatherDisplay:10.37,2013-08-09 13:42:00,
2013-08-09 06:47:00,53.1,38.7,29.76,SSW,197,4.0,4.0,58,0.00,OVC,,0.00,WeatherDisplay:10.37,2013-08-09 13:47:00,
2013-08-09 06:52:00,56.0,41.0,29.76,SSW,197,4.0,4.0,57,0.00,OVC,,0.00,WeatherDisplay:10.37,2013-08-09 13:52:00,
2013-08-09 06:57:00,57.6,41.5,29.76,SSW,197,4.0,4.0,55,0.00,OVC,,0.00,WeatherDisplay:10.37,2013-08-09 13:57:00,
2013-08-09 07:02:00,57.7,38.7,29.76,SSW,197,3.5,3.5,49,0.00,OVC,,0.00,WeatherDisplay:10.37,2013-08-09 14:02:00,
2013-08-09 07:07:00,57.1,39.1,29.76,SSW,197,3.5,3.5,51,0.00,OVC,,0.00,WeatherDisplay:10.37,2013-08-09 14:07:00,
2013-08-09 07:13:00,57.7,39.7,29.76,SSW,197,5.0,5.0,51,0.00,OVC,,0.00,WeatherDisplay:10.37,2013-08-09 14:13:00,
2013-08-09 07:18:00,58.6,40.0,29.77,South,184,4.0,4.0,50,0.00,OVC,,0.00,WeatherDisplay:10.37,2013-08-09 14:18:00,
2013-08-09 07:23:00,58.8,39.1,29.77,South,185,4.6,4.6,48,0.00,OVC,,0.00,WeatherDisplay:10.37,2013-08-09 14:23:00,
2013-08-09 07:28:00,58.8,39.1,29.77,SE,133,3.5,3.5,48,0.00,OVC,,0.00,WeatherDisplay:10.37,2013-08-09 14:28:00,
2013-08-09 07:33:00,59.5,39.8,29.77,SE,133,3.5,3.5,48,0.00,OVC,,0.00,WeatherDisplay:10.37,2013-08-09 14:33:00,
2013-08-09 07:38:00,60.2,39.9,29.77,SE,133,1.0,1.0,47,0.00,OVC,,0.00,WeatherDisplay:10.37,2013-08-09 14:38:00,
2013-08-09 07:44:00,61.1,40.7,29.77,SE,133,0.0,0.0,47,0.00,OVC,,0.00,WeatherDisplay:10.37,2013-08-09 14:44:00,
2013-08-09 07:49:00,62.0,41.0,29.77,SE,133,0.0,0.0,46,0.00,OVC,,0.00,WeatherDisplay:10.37,2013-08-09 14:49:00,
2013-08-09 07:54:00,63.4,41.7,29.77,SE,133,1.1,0.0,45,0.00,CLR,,0.00,WeatherDisplay:10.37,2013-08-09 14:54:00,
2013-08-09 07:59:00,64.8,42.4,29.77,SE,133,2.3,2.3,44,0.00,OVC,,0.00,WeatherDisplay:10.37,2013-08-09 14:59:00,
2013-08-09 08:04:00,66.2,42.4,29.77,SSW,211,3.5,3.5,42,0.00,OVC,,0.00,WeatherDisplay:10.37,2013-08-09 15:04:00,
2013-08-09 08:09:00,67.1,42.6,29.77,South,178,5.8,5.8,41,0.00,OVC,,0.00,WeatherDisplay:10.37,2013-08-09 15:09:00,
2013-08-09 08:15:00,67.8,42.6,29.77,South,190,6.0,6.0,40,0.00,OVC,,0.00,WeatherDisplay:10.37,2013-08-09 15:15:00,
2013-08-09 08:20:00,68.3,42.4,29.77,SSW,203,5.8,5.8,39,0.00,OVC,,0.00,WeatherDisplay:10.37,2013-08-09 15:20:00,
2013-08-09 08:25:00,68.8,42.8,29.77,SW,221,3.0,3.0,39,0.00,OVC,,0.00,WeatherDisplay:10.37,2013-08-09 15:25:00,
2013-08-09 08:30:00,69.2,42.5,29.77,SW,229,3.0,5.0,38,0.00,CLR,,0.00,WeatherDisplay:10.37,2013-08-09 15:30:00,
2013-08-09 08:35:00,69.8,43.0,29.77,SW,225,3.5,3.5,38,0.00,OVC,,0.00,WeatherDisplay:10.37,2013-08-09 15:35:00,
2013-08-09 08:41:00,70.3,42.8,29.77,WSW,258,1.0,1.0,37,0.00,OVC,,0.00,WeatherDisplay:10.37,2013-08-09 15:41:00,
2013-08-09 08:46:00,71.2,42.9,29.77,West,260,3.5,3.5,36,0.00,OVC,,0.00,WeatherDisplay:10.37,2013-08-09 15:46:00,
2013-08-09 08:51:00,71.8,43.4,29.77,SW,222,3.5,3.5,36,0.00,OVC,,0.00,WeatherDisplay:10.37,2013-08-09 15:51:00,
2013-08-09 08:56:00,72.3,43.1,29.77,West,264,5.0,5.0,35,0.00,OVC,,0.00,WeatherDisplay:10.37,2013-08-09 15:56:00,
2013-08-09 09:01:00,72.6,42.6,29.77,WSW,240,4.6,4.6,34,0.00,OVC,,0.00,WeatherDisplay:10.37,2013-08-09 16:01:00,
2013-08-09 09:06:00,73.1,43.1,29.77,SE,142,2.3,2.3,34,0.00,OVC,,0.00,WeatherDisplay:10.37,2013-08-09 16:06:00,
2013-08-09 09:12:00,74.5,43.5,29.77,NE,55,0.0,0.0,33,0.00,OVC,,0.00,WeatherDisplay:10.37,2013-08-09 16:12:00,
2013-08-09 09:17:00,75.2,43.3,29.77,ENE,76,2.3,2.3,32,0.00,OVC,,0.00,WeatherDisplay:10.37,2013-08-09 16:17:00,
2013-08-09 09:22:00,75.3,43.4,29.77,ESE,123,4.0,4.0,32,0.00,OVC,,0.00,WeatherDisplay:10.37,2013-08-09 16:22:00,
2013-08-09 09:27:00,75.9,43.1,29.77,North,355,3.5,3.5,31,0.00,OVC,,0.00,WeatherDisplay:10.37,2013-08-09 16:27:00,
2013-08-09 09:32:00,76.4,41.8,29.77,SSE,155,5.8,5.8,29,0.00,OVC,,0.00,WeatherDisplay:10.37,2013-08-09 16:32:00,
2013-08-09 09:37:00,76.5,41.9,29.77,SSW,204,4.0,4.0,29,0.00,OVC,,0.00,WeatherDisplay:10.37,2013-08-09 16:37:00,
2013-08-09 09:42:00,76.6,41.0,29.77,SSW,192,5.0,5.0,28,0.00,OVC,,0.00,WeatherDisplay:10.37,2013-08-09 16:42:00,
2013-08-09 09:47:00,76.9,40.4,29.77,SW,231,9.2,9.2,27,0.00,OVC,,0.00,WeatherDisplay:10.37,2013-08-09 16:47:00,
2013-08-09 09:52:00,77.3,39.7,29.77,South,174,10.4,10.4,26,0.00,OVC,,0.00,WeatherDisplay:10.37,2013-08-09 16:52:00,
2013-08-09 09:58:00,77.7,40.1,29.77,South,179,11.5,11.5,26,0.00,OVC,,0.00,WeatherDisplay:10.37,2013-08-09 16:58:00,
2013-08-09 10:03:00,77.9,40.2,29.77,SSW,194,10.4,10.4,26,0.00,OVC,,0.00,WeatherDisplay:10.37,2013-08-09 17:03:00,
2013-08-09 10:08:00,78.0,41.3,29.77,WSW,242,10.4,10.4,27,0.00,OVC,,0.00,WeatherDisplay:10.37,2013-08-09 17:08:00,
2013-08-09 10:13:00,78.4,40.7,29.77,South,169,12.7,12.7,26,0.00,OVC,,0.00,WeatherDisplay:10.37,2013-08-09 17:13:00,
2013-08-09 10:19:00,78.6,41.8,29.77,SE,130,10.4,10.4,27,0.00,OVC,,0.00,WeatherDisplay:10.37,2013-08-09 17:19:00,
2013-08-09 10:24:00,78.9,41.1,29.77,South,191,8.1,8.1,26,0.00,OVC,,0.00,WeatherDisplay:10.37,2013-08-09 17:24:00,
2013-08-09 10:29:00,79.5,40.6,29.77,SSW,195,16.1,16.1,25,0.00,OVC,,0.00,WeatherDisplay:10.37,2013-08-09 17:29:00,
2013-08-09 10:34:00,79.6,40.7,29.76,SW,220,13.0,13.0,25,0.00,OVC,,0.00,WeatherDisplay:10.37,2013-08-09 17:34:00,
2013-08-09 10:39:00,80.2,40.1,29.76,South,188,17.3,17.3,24,0.00,OVC,,0.00,WeatherDisplay:10.37,2013-08-09 17:39:00,
2013-08-09 10:44:00,80.3,40.2,29.76,SSE,167,9.2,9.2,24,0.00,OVC,,0.00,WeatherDisplay:10.37,2013-08-09 17:44:00,
2013-08-09 10:49:00,80.7,39.4,29.76,ESE,122,9.2,9.2,23,0.00,OVC,,0.00,WeatherDisplay:10.37,2013-08-09 17:49:00,
2013-08-09 10:55:00,80.9,38.5,29.76,SE,140,12.0,12.0,22,0.00,OVC,,0.00,WeatherDisplay:10.37,2013-08-09 17:55:00,
2013-08-09 11:00:00,81.4,37.7,29.76,ESE,117,11.5,11.5,21,0.00,OVC,,0.00,WeatherDisplay:10.37,2013-08-09 18:00:00,
2013-08-09 11:05:00,81.0,37.4,29.76,SE,132,6.0,6.0,21,0.00,CLR,,0.00,WeatherDisplay:10.37,2013-08-09 18:05:00,
2013-08-09 11:10:00,81.5,37.8,29.76,SE,134,10.0,14.0,21,0.00,CLR,,0.00,WeatherDisplay:10.37,2013-08-09 18:10:00,
2013-08-09 11:15:00,82.2,38.4,29.76,SSE,150,16.1,16.1,21,0.00,CLR,,0.00,WeatherDisplay:10.37,2013-08-09 18:15:00,
2013-08-09 11:20:00,82.3,37.2,29.76,SE,142,17.3,17.3,20,0.00,CLR,,0.00,WeatherDisplay:10.37,2013-08-09 18:20:00,
2013-08-09 11:25:00,82.6,36.1,29.76,SE,138,15.0,15.0,19,0.00,CLR,,0.00,WeatherDisplay:10.37,2013-08-09 18:25:00,
2013-08-09 11:30:00,82.4,37.3,29.76,SSE,157,8.0,8.0,20,0.00,CLR,,0.00,WeatherDisplay:10.37,2013-08-09 18:30:00,
2013-08-09 11:36:00,82.7,36.2,29.76,SSE,159,17.3,17.3,19,0.00,CLR,,0.00,WeatherDisplay:10.37,2013-08-09 18:36:00,
2013-08-09 11:41:00,82.7,36.2,29.76,SSE,150,10.4,10.4,19,0.00,CLR,,0.00,WeatherDisplay:10.37,2013-08-09 18:41:00,
2013-08-09 11:46:00,82.9,35.0,29.76,SSE,150,14.0,14.0,18,0.00,CLR,,0.00,WeatherDisplay:10.37,2013-08-09 18:46:00,
2013-08-09 11:51:00,83.0,35.1,29.76,SSE,154,16.1,16.1,18,0.00,CLR,,0.00,WeatherDisplay:10.37,2013-08-09 18:51:00,
2013-08-09 11:56:00,82.8,34.9,29.75,ESE,113,14.0,14.0,18,0.00,CLR,,0.00,WeatherDisplay:10.37,2013-08-09 18:56:00,
2013-08-09 12:01:00,83.4,35.4,29.75,SE,140,16.1,16.1,18,0.00,CLR,,0.00,WeatherDisplay:10.37,2013-08-09 19:01:00,
2013-08-09 12:06:00,83.9,35.8,29.75,SE,136,20.7,20.7,18,0.00,CLR,,0.00,WeatherDisplay:10.37,2013-08-09 19:06:00,
2013-08-09 12:12:00,83.9,34.4,29.75,SSE,148,19.6,19.6,17,0.00,CLR,,0.00,WeatherDisplay:10.37,2013-08-09 19:12:00,
2013-08-09 12:17:00,83.9,34.4,29.75,SSE,153,11.5,11.5,17,0.00,CLR,,0.00,WeatherDisplay:10.37,2013-08-09 19:17:00,
2013-08-09 12:22:00,84.1,33.0,29.75,ESE,104,19.6,19.6,16,0.00,CLR,,0.00,WeatherDisplay:10.37,2013-08-09 19:22:00,
2013-08-09 12:27:00,84.1,33.0,29.75,East,81,15.0,15.0,16,0.00,CLR,,0.00,WeatherDisplay:10.37,2013-08-09 19:27:00,
2013-08-09 12:32:00,84.7,31.9,29.75,SE,138,17.3,17.3,15,0.00,CLR,,0.00,WeatherDisplay:10.37,2013-08-09 19:32:00,
2013-08-09 12:37:00,84.5,31.8,29.75,SE,125,19.6,19.6,15,0.00,CLR,,0.00,WeatherDisplay:10.37,2013-08-09 19:37:00,
2013-08-09 12:42:00,84.5,30.1,29.75,East,84,15.0,15.0,14,0.00,CLR,,0.00,WeatherDisplay:10.37,2013-08-09 19:42:00,
2013-08-09 12:48:00,85.5,30.8,29.75,ESE,117,20.7,20.7,14,0.00,CLR,,0.00,WeatherDisplay:10.37,2013-08-09 19:48:00,
2013-08-09 12:53:00,85.2,30.6,29.75,SE,138,13.0,13.0,14,0.00,CLR,,0.00,WeatherDisplay:10.37,2013-08-09 19:53:00,
2013-08-09 12:58:00,85.6,29.1,29.75,SE,142,17.3,17.8,13,0.00,CLR,,0.00,WeatherDisplay:10.37,2013-08-09 19:58:00,
2013-08-09 13:03:00,85.1,28.7,29.75,ESE,108,25.3,25.3,13,0.00,CLR,,0.00,WeatherDisplay:10.37,2013-08-09 20:03:00,
2013-08-09 13:08:00,84.9,28.6,29.75,East,83,15.0,15.0,13,0.00,CLR,,0.00,WeatherDisplay:10.37,2013-08-09 20:08:00,
2013-08-09 13:14:00,85.6,27.1,29.75,SE,124,21.9,21.9,12,0.00,CLR,,0.00,WeatherDisplay:10.37,2013-08-09 20:14:00,
2013-08-09 13:19:00,85.6,27.1,29.75,South,175,23.0,23.0,12,0.00,CLR,,0.00,WeatherDisplay:10.37,2013-08-09 20:19:00,
2013-08-09 13:24:00,85.4,27.0,29.75,ESE,121,8.1,8.1,12,0.00,CLR,,0.00,WeatherDisplay:10.37,2013-08-09 20:24:00,
2013-08-09 13:29:00,87.1,28.3,29.75,SE,128,19.6,19.6,12,0.00,CLR,,0.00,WeatherDisplay:10.37,2013-08-09 20:29:00,
2013-08-09 13:34:00,86.5,25.7,29.74,SSE,153,21.9,21.9,11,0.00,CLR,,0.00,WeatherDisplay:10.37,2013-08-09 20:34:00,
2013-08-09 13:39:00,86.9,26.0,29.74,ESE,114,17.3,17.3,11,0.00,CLR,,0.00,WeatherDisplay:10.37,2013-08-09 20:39:00,
2013-08-09 13:44:00,86.7,25.9,29.74,SSE,165,20.7,20.7,11,0.00,CLR,,0.00,WeatherDisplay:10.37,2013-08-09 20:44:00,
2013-08-09 13:49:00,86.5,25.7,29.74,SE,144,9.0,9.0,11,0.00,CLR,,0.00,WeatherDisplay:10.37,2013-08-09 20:49:00,
2013-08-09 13:55:00,87.1,26.2,29.74,SE,141,12.0,12.0,11,0.00,CLR,,0.00,WeatherDisplay:10.37,2013-08-09 20:55:00,
2013-08-09 14:00:00,86.7,25.9,29.74,SSE,157,15.0,15.0,11,0.00,CLR,,0.00,WeatherDisplay:10.37,2013-08-09 21:00:00,
2013-08-09 14:05:00,86.4,23.4,29.74,South,173,10.4,10.4,10,0.00,CLR,,0.00,WeatherDisplay:10.37,2013-08-09 21:05:00,
2013-08-09 14:10:00,87.5,24.2,29.74,SSE,165,13.0,17.0,10,0.00,CLR,,0.00,WeatherDisplay:10.37,2013-08-09 21:10:00,
2013-08-09 14:15:00,86.7,23.6,29.74,SE,131,12.0,15.0,10,0.00,CLR,,0.00,WeatherDisplay:10.37,2013-08-09 21:15:00,
2013-08-09 14:20:00,86.7,23.6,29.74,SSE,154,13.0,17.0,10,0.00,CLR,,0.00,WeatherDisplay:10.37,2013-08-09 21:20:00,
2013-08-09 14:25:00,86.7,23.6,29.74,South,170,7.0,20.0,10,0.00,CLR,,0.00,WeatherDisplay:10.37,2013-08-09 21:25:00,
2013-08-09 14:30:00,87.8,24.4,29.75,SSE,164,15.0,25.0,10,0.00,CLR,,0.00,WeatherDisplay:10.37,2013-08-09 21:30:00,
2013-08-09 14:35:00,87.6,24.3,29.74,SSE,167,10.0,18.0,10,0.00,CLR,,0.00,WeatherDisplay:10.37,2013-08-09 21:35:00,
2013-08-09 14:40:00,87.7,21.9,29.74,SSE,151,17.0,21.0,9,0.00,CLR,,0.00,WeatherDisplay:10.37,2013-08-09 21:40:00,
2013-08-09 14:45:00,87.8,21.9,29.74,SSE,150,14.0,14.0,9,0.00,CLR,,0.00,WeatherDisplay:10.37,2013-08-09 21:45:00,
2013-08-09 14:51:00,88.3,22.3,29.74,SSE,150,19.6,19.6,9,0.00,CLR,,0.00,WeatherDisplay:10.37,2013-08-09 21:51:00,
2013-08-09 14:56:00,88.4,24.9,29.74,SE,143,20.7,20.7,10,0.00,CLR,,0.00,WeatherDisplay:10.37,2013-08-09 21:56:00,
2013-08-09 15:01:00,87.5,24.2,29.74,South,169,20.0,20.0,10,0.00,CLR,,0.00,WeatherDisplay:10.37,2013-08-09 22:01:00,
2013-08-09 15:06:00,87.7,24.4,29.74,SSW,195,15.0,15.0,10,0.00,CLR,,0.00,WeatherDisplay:10.37,2013-08-09 22:06:00,
2013-08-09 15:11:00,88.7,25.1,29.74,South,173,25.3,25.3,10,0.00,CLR,,0.00,WeatherDisplay:10.37,2013-08-09 22:11:00,
2013-08-09 15:16:00,88.4,24.9,29.74,SSE,155,18.4,18.4,10,0.00,CLR,,0.00,WeatherDisplay:10.37,2013-08-09 22:16:00,
2013-08-09 15:21:00,89.3,23.0,29.74,SSE,153,14.0,14.0,9,0.00,CLR,,0.00,WeatherDisplay:10.37,2013-08-09 22:21:00,
2013-08-09 15:26:00,88.6,25.0,29.74,SE,140,24.2,24.2,10,0.00,CLR,,0.00,WeatherDisplay:10.37,2013-08-09 22:26:00,
2013-08-09 15:32:00,88.0,24.6,29.74,SSE,155,25.3,25.3,10,0.00,CLR,,0.00,WeatherDisplay:10.37,2013-08-09 22:32:00,
2013-08-09 15:37:00,88.6,25.0,29.73,ESE,111,25.3,25.3,10,0.00,CLR,,0.00,WeatherDisplay:10.37,2013-08-09 22:37:00,
2013-08-09 15:42:00,88.1,24.7,29.73,SSE,149,26.5,26.5,10,0.00,CLR,,0.00,WeatherDisplay:10.37,2013-08-09 22:42:00,
2013-08-09 15:47:00,87.4,24.1,29.73,SE,144,26.5,26.5,10,0.00,CLR,,0.00,WeatherDisplay:10.37,2013-08-09 22:47:00,
2013-08-09 15:52:00,87.8,24.4,29.73,SSE,150,26.5,26.5,10,0.00,CLR,,0.00,WeatherDisplay:10.37,2013-08-09 22:52:00,
2013-08-09 15:58:00,87.4,24.1,29.73,South,176,24.0,24.0,10,0.00,CLR,,0.00,WeatherDisplay:10.37,2013-08-09 22:58:00,
2013-08-09 16:03:00,87.0,23.8,29.73,South,170,20.7,20.7,10,0.00,CLR,,0.00,WeatherDisplay:10.37,2013-08-09 23:03:00,
2013-08-09 16:08:00,87.1,26.2,29.73,SSE,157,23.0,23.0,11,0.00,CLR,,0.00,WeatherDisplay:10.37,2013-08-09 23:08:00,
2013-08-09 16:13:00,87.3,24.1,29.73,SSE,157,25.3,25.3,10,0.00,CLR,,0.00,WeatherDisplay:10.37,2013-08-09 23:13:00,
2013-08-09 16:18:00,86.8,26.0,29.73,SSE,154,25.3,25.3,11,0.00,CLR,,0.00,WeatherDisplay:10.37,2013-08-09 23:18:00,
2013-08-09 16:24:00,86.8,28.1,29.73,SE,141,29.0,29.0,12,0.00,CLR,,0.00,WeatherDisplay:10.37,2013-08-09 23:24:00,
2013-08-09 16:29:00,87.3,28.5,29.73,SSE,149,20.7,20.7,12,0.00,CLR,,0.00,WeatherDisplay:10.37,2013-08-09 23:29:00,
2013-08-09 16:34:00,87.6,28.7,29.73,SSE,148,24.2,24.2,12,0.00,CLR,,0.00,WeatherDisplay:10.37,2013-08-09 23:34:00,
2013-08-09 16:39:00,86.2,29.6,29.73,SSE,149,26.5,26.5,13,0.00,CLR,,0.00,WeatherDisplay:10.37,2013-08-09 23:39:00,
2013-08-09 16:44:00,86.4,31.6,29.73,SSE,149,25.3,25.3,14,0.00,CLR,,0.00,WeatherDisplay:10.37,2013-08-09 23:44:00,
2013-08-09 16:49:00,86.9,32.0,29.73,South,171,25.3,25.3,14,0.00,CLR,,0.00,WeatherDisplay:10.37,2013-08-09 23:49:00,
2013-08-09 16:54:00,86.8,33.6,29.73,South,180,23.0,23.0,15,0.00,CLR,,0.00,WeatherDisplay:10.37,2013-08-09 23:54:00,
2013-08-09 16:59:00,86.1,33.0,29.73,South,173,23.0,23.0,15,0.00,CLR,,0.00,WeatherDisplay:10.37,2013-08-09 23:59:00,
2013-08-09 17:05:00,85.5,35.7,29.73,SSE,163,29.9,29.9,17,0.00,CLR,,0.00,WeatherDisplay:10.37,2013-08-10 00:05:00,
2013-08-09 17:10:00,85.5,37.1,29.72,SE,142,28.0,28.0,18,0.00,CLR,,0.00,WeatherDisplay:10.37,2013-08-10 00:10:00,
2013-08-09 17:15:00,85.4,35.6,29.72,SSE,150,29.0,29.0,17,0.00,CLR,,0.00,WeatherDisplay:10.37,2013-08-10 00:15:00,
2013-08-09 17:20:00,84.9,38.1,29.73,SSE,152,24.0,31.0,19,0.00,CLR,,0.00,WeatherDisplay:10.37,2013-08-10 00:20:00,
2013-08-09 17:25:00,85.4,38.4,29.73,South,173,28.0,28.0,19,0.00,CLR,,0.00,WeatherDisplay:10.37,2013-08-10 00:25:00,
2013-08-09 17:30:00,84.7,37.9,29.73,SSE,148,28.0,28.0,19,0.00,CLR,,0.00,WeatherDisplay:10.37,2013-08-10 00:30:00,
2013-08-09 17:35:00,84.4,38.9,29.73,South,179,27.0,27.0,20,0.00,CLR,,0.00,WeatherDisplay:10.37,2013-08-10 00:35:00,
2013-08-09 17:40:00,84.1,38.7,29.73,SSE,150,27.6,27.6,20,0.00,CLR,,0.00,WeatherDisplay:10.37,2013-08-10 00:40:00,
2013-08-09 17:45:00,84.0,37.3,29.73,SSE,155,30.0,30.0,19,0.00,CLR,,0.00,WeatherDisplay:10.37,2013-08-10 00:45:00,
2013-08-09 17:51:00,83.6,37.0,29.73,SSE,153,29.9,29.9,19,0.00,CLR,,0.00,WeatherDisplay:10.37,2013-08-10 00:51:00,
2013-08-09 17:56:00,83.1,36.6,29.73,SSE,151,33.4,33.4,19,0.00,CLR,,0.00,WeatherDisplay:10.37,2013-08-10 00:56:00,
2013-08-09 18:01:00,83.0,39.0,29.73,SE,135,29.0,29.0,21,0.00,CLR,,0.00,WeatherDisplay:10.37,2013-08-10 01:01:00,
2013-08-09 18:06:00,82.5,41.0,29.73,SSE,157,30.0,30.0,23,0.00,CLR,,0.00,WeatherDisplay:10.37,2013-08-10 01:06:00,
2013-08-09 18:11:00,82.4,43.0,29.73,SSE,155,32.2,32.2,25,0.00,CLR,,0.00,WeatherDisplay:10.37,2013-08-10 01:11:00,
2013-08-09 18:17:00,82.1,44.8,29.73,SSE,163,28.8,28.8,27,0.00,CLR,,0.00,WeatherDisplay:10.37,2013-08-10 01:17:00,
2013-08-09 18:22:00,81.9,44.6,29.73,South,169,26.5,26.5,27,0.00,CLR,,0.00,WeatherDisplay:10.37,2013-08-10 01:22:00,
2013-08-09 18:27:00,81.6,43.4,29.73,SSE,159,31.1,31.1,26,0.00,CLR,,0.00,WeatherDisplay:10.37,2013-08-10 01:27:00,
2013-08-09 18:32:00,81.3,43.1,29.73,SSE,157,29.9,29.9,26,0.00,CLR,,0.00,WeatherDisplay:10.37,2013-08-10 01:32:00,
2013-08-09 18:38:00,81.2,43.0,29.73,South,180,30.0,30.0,26,0.00,CLR,,0.00,WeatherDisplay:10.37,2013-08-10 01:38:00,
2013-08-09 18:43:00,80.9,43.8,29.73,South,177,27.0,27.0,27,0.00,CLR,,0.00,WeatherDisplay:10.37,2013-08-10 01:43:00,
2013-08-09 18:48:00,80.5,44.4,29.73,South,180,30.0,30.0,28,0.00,CLR,,0.00,WeatherDisplay:10.37,2013-08-10 01:48:00,
2013-08-09 18:53:00,80.0,44.0,29.73,SSE,158,26.5,26.5,28,0.00,CLR,,0.00,WeatherDisplay:10.37,2013-08-10 01:53:00,
2013-08-09 18:58:00,79.5,44.5,29.73,SSE,154,28.0,28.0,29,0.00,CLR,,0.00,WeatherDisplay:10.37,2013-08-10 01:58:00,
2013-08-09 19:03:00,79.0,44.9,29.74,South,169,32.2,32.2,30,0.00,CLR,,0.00,WeatherDisplay:10.37,2013-08-10 02:03:00,
2013-08-09 19:08:00,78.5,44.5,29.74,South,182,28.8,28.8,30,0.00,OVC,,0.00,WeatherDisplay:10.37,2013-08-10 02:08:00,
2013-08-09 19:14:00,78.2,43.3,29.74,South,172,28.0,28.0,29,0.00,OVC,,0.00,WeatherDisplay:10.37,2013-08-10 02:14:00,
2013-08-09 19:19:00,77.8,43.9,29.74,South,184,29.9,29.9,30,0.00,OVC,,0.00,WeatherDisplay:10.37,2013-08-10 02:19:00,
2013-08-09 19:24:00,77.4,43.5,29.75,SSE,167,29.0,29.0,30,0.00,OVC,,0.00,WeatherDisplay:10.37,2013-08-10 02:24:00,
2013-08-09 19:29:00,77.2,42.5,29.75,South,179,29.9,29.9,29,0.00,OVC,,0.00,WeatherDisplay:10.37,2013-08-10 02:29:00,
2013-08-09 19:34:00,76.8,42.1,29.75,South,173,32.2,32.2,29,0.00,OVC,,0.00,WeatherDisplay:10.37,2013-08-10 02:34:00,
2013-08-09 19:39:00,76.4,42.7,29.75,SSE,168,27.6,27.6,30,0.00,OVC,,0.00,WeatherDisplay:10.37,2013-08-10 02:39:00,
2013-08-09 19:44:00,76.1,42.4,29.75,South,178,28.8,28.8,30,0.00,OVC,,0.00,WeatherDisplay:10.37,2013-08-10 02:44:00,
2013-08-09 19:49:00,75.9,40.4,29.75,South,181,27.0,27.0,28,0.00,OVC,,0.00,WeatherDisplay:10.37,2013-08-10 02:49:00,
2013-08-09 19:54:00,75.8,38.5,29.76,South,172,26.5,26.5,26,0.00,OVC,,0.00,WeatherDisplay:10.37,2013-08-10 02:54:00,
2013-08-09 19:59:00,75.8,36.4,29.76,SSE,150,28.0,28.0,24,0.00,OVC,,0.00,WeatherDisplay:10.37,2013-08-10 02:59:00,
2013-08-09 20:04:00,75.7,36.3,29.76,South,178,26.5,26.5,24,0.00,OVC,,0.00,WeatherDisplay:10.37,2013-08-10 03:04:00,
2013-08-09 20:10:00,75.7,36.3,29.76,South,174,28.8,28.8,24,0.00,OVC,,0.00,WeatherDisplay:10.37,2013-08-10 03:10:00,
2013-08-09 20:15:00,75.6,36.2,29.76,South,177,24.0,27.0,24,0.00,CLR,,0.00,WeatherDisplay:10.37,2013-08-10 03:15:00,
2013-08-09 20:20:00,75.4,37.1,29.76,South,180,24.0,28.0,25,0.00,CLR,,0.00,WeatherDisplay:10.37,2013-08-10 03:20:00,
2013-08-09 20:25:00,75.1,38.8,29.77,South,180,20.0,27.0,27,0.00,CLR,,0.00,WeatherDisplay:10.37,2013-08-10 03:25:00,
2013-08-09 20:30:00,74.7,38.5,29.77,South,178,20.0,23.0,27,0.00,CLR,,0.00,WeatherDisplay:10.37,2013-08-10 03:30:00,
2013-08-09 20:35:00,74.4,38.2,29.77,South,179,17.0,23.0,27,0.00,CLR,,0.00,WeatherDisplay:10.37,2013-08-10 03:35:00,
2013-08-09 20:40:00,74.1,38.0,29.77,South,180,20.0,23.0,27,0.00,CLR,,0.00,WeatherDisplay:10.37,2013-08-10 03:40:00,
2013-08-09 20:45:00,73.9,37.8,29.77,South,181,21.0,25.0,27,0.00,CLR,,0.00,WeatherDisplay:10.37,2013-08-10 03:45:00,
2013-08-09 20:50:00,73.6,37.6,29.77,South,184,16.0,23.0,27,0.00,CLR,,0.00,WeatherDisplay:10.37,2013-08-10 03:50:00,
2013-08-09 20:55:00,73.4,37.4,29.77,South,181,17.0,22.0,27,0.00,CLR,,0.00,WeatherDisplay:10.37,2013-08-10 03:55:00,
2013-08-09 21:00:00,73.3,36.3,29.78,South,178,15.0,21.0,26,0.00,CLR,,0.00,WeatherDisplay:10.37,2013-08-10 04:00:00,
2013-08-09 21:01:00,73.3,36.3,29.78,South,175,19.6,19.6,26,0.00,OVC,,0.00,WeatherDisplay:10.37,2013-08-10 04:01:00,
2013-08-09 21:02:00,73.3,36.3,29.78,South,180,19.6,19.6,26,0.00,OVC,,0.00,WeatherDisplay:10.37,2013-08-10 04:02:00,
2013-08-09 21:07:00,73.1,35.2,29.78,South,184,19.6,19.6,25,0.00,CLR,,0.00,WeatherDisplay:10.37,2013-08-10 04:07:00,
2013-08-09 21:13:00,72.8,34.9,29.78,South,182,20.0,20.0,25,0.00,CLR,,0.00,WeatherDisplay:10.37,2013-08-10 04:13:00,
2013-08-09 21:18:00,72.4,34.6,29.79,South,180,18.4,18.4,25,0.00,CLR,,0.00,WeatherDisplay:10.37,2013-08-10 04:18:00,
2013-08-09 21:23:00,72.1,34.3,29.78,SSE,165,16.1,16.1,25,0.00,CLR,,0.00,WeatherDisplay:10.37,2013-08-10 04:23:00,
2013-08-09 21:28:00,71.9,34.1,29.78,South,182,17.3,17.3,25,0.00,CLR,,0.00,WeatherDisplay:10.37,2013-08-10 04:28:00,
2013-08-09 21:33:00,71.7,35.0,29.78,SSE,167,18.4,18.4,26,0.00,CLR,,0.00,WeatherDisplay:10.37,2013-08-10 04:33:00,
2013-08-09 21:38:00,71.6,35.8,29.78,South,180,17.3,17.3,27,0.00,CLR,,0.00,WeatherDisplay:10.37,2013-08-10 04:38:00,
2013-08-09 21:40:00,71.5,35.7,29.78,South,180,18.4,18.4,27,0.00,CLR,,0.00,WeatherDisplay:10.37,2013-08-10 04:40:00,
2013-08-09 21:45:00,71.4,34.7,29.79,South,176,18.4,18.4,26,0.00,CLR,,0.00,WeatherDisplay:10.37,2013-08-10 04:45:00,
2013-08-09 21:51:00,71.5,34.8,29.79,South,176,18.0,18.0,26,0.00,CLR,,0.00,WeatherDisplay:10.37,2013-08-10 04:51:00,
2013-08-09 21:56:00,71.4,34.7,29.79,South,172,18.4,18.4,26,0.00,CLR,,0.00,WeatherDisplay:10.37,2013-08-10 04:56:00,
2013-08-09 22:01:00,71.3,34.6,29.79,South,187,18.4,18.4,26,0.00,CLR,,0.00,WeatherDisplay:10.37,2013-08-10 05:01:00,
2013-08-09 22:06:00,71.2,35.5,29.79,South,184,13.8,13.8,27,0.00,CLR,,0.00,WeatherDisplay:10.37,2013-08-10 05:06:00,
2013-08-09 22:11:00,71.1,35.4,29.79,South,184,14.0,14.0,27,0.00,CLR,,0.00,WeatherDisplay:10.37,2013-08-10 05:11:00,
2013-08-09 22:16:00,70.9,34.3,29.79,South,184,11.5,11.5,26,0.00,CLR,,0.00,WeatherDisplay:10.37,2013-08-10 05:16:00,
2013-08-09 22:21:00,70.5,34.9,29.80,South,184,13.0,13.0,27,0.00,CLR,,0.00,WeatherDisplay:10.37,2013-08-10 05:21:00,
2013-08-09 22:26:00,70.3,33.8,29.79,South,183,13.8,13.8,26,0.00,CLR,,0.00,WeatherDisplay:10.37,2013-08-10 05:26:00,
2013-08-09 22:31:00,70.1,33.6,29.79,South,180,13.0,13.0,26,0.00,CLR,,0.00,WeatherDisplay:10.37,2013-08-10 05:31:00,
2013-08-09 22:36:00,69.6,34.1,29.79,South,182,13.8,13.8,27,0.00,CLR,,0.00,WeatherDisplay:10.37,2013-08-10 05:36:00,
2013-08-09 22:41:00,69.2,33.8,29.79,SSW,193,10.4,10.4,27,0.00,CLR,,0.00,WeatherDisplay:10.37,2013-08-10 05:41:00,
2013-08-09 22:46:00,68.9,34.4,29.79,SSW,193,10.4,10.4,28,0.00,CLR,,0.00,WeatherDisplay:10.37,2013-08-10 05:46:00,
2013-08-09 22:51:00,68.8,34.3,29.79,South,177,11.5,11.5,28,0.00,CLR,,0.00,WeatherDisplay:10.37,2013-08-10 05:51:00,
2013-08-09 22:56:00,68.8,35.2,29.79,South,170,11.5,11.5,29,0.00,CLR,,0.00,WeatherDisplay:10.37,2013-08-10 05:56:00,
2013-08-09 23:01:00,68.7,36.0,29.79,South,178,9.2,9.2,30,0.00,CLR,,0.00,WeatherDisplay:10.37,2013-08-10 06:01:00,
2013-08-09 23:07:00,68.4,36.6,29.79,South,183,5.8,5.8,31,0.00,OVC,,0.00,WeatherDisplay:10.37,2013-08-10 06:07:00,
2013-08-09 23:12:00,68.0,37.0,29.79,South,183,5.0,5.0,32,0.00,OVC,,0.00,WeatherDisplay:10.37,2013-08-10 06:12:00,
2013-08-09 23:17:00,68.1,37.9,29.79,SSE,151,4.0,4.0,33,0.00,OVC,,0.00,WeatherDisplay:10.37,2013-08-10 06:17:00,
2013-08-09 23:22:00,68.5,39.8,29.79,SSE,163,5.8,5.8,35,0.00,CLR,,0.00,WeatherDisplay:10.37,2013-08-10 06:22:00,
2013-08-09 23:27:00,68.6,40.6,29.79,South,186,7.0,7.0,36,0.00,OVC,,0.00,WeatherDisplay:10.37,2013-08-10 06:27:00,
2013-08-09 23:32:00,68.8,40.7,29.79,South,179,14.0,14.0,36,0.00,OVC,,0.00,WeatherDisplay:10.37,2013-08-10 06:32:00,
2013-08-09 23:38:00,69.0,41.6,29.78,SSE,159,15.0,15.0,37,0.00,OVC,,0.00,WeatherDisplay:10.37,2013-08-10 06:38:00,
2013-08-09 23:43:00,68.9,41.5,29.79,South,184,13.8,13.8,37,0.00,OVC,,0.00,WeatherDisplay:10.37,2013-08-10 06:43:00,
2013-08-09 23:48:00,69.1,41.7,29.79,South,184,13.0,13.0,37,0.00,OVC,,0.00,WeatherDisplay:10.37,2013-08-10 06:48:00,
2013-08-09 23:53:00,69.2,41.8,29.79,South,182,8.0,8.0,37,0.00,OVC,,0.00,WeatherDisplay:10.37,2013-08-10 06:53:00,
2013-08-09 23:58:00,69.1,41.7,29.78,South,180,9.2,9.2,37,0.00,OVC,,0.00,WeatherDisplay:10.37,2013-08-10 06:58:00,